Simultaneous Nadir Overpasses (SNOs) Predictions

Prediction of SNOs between METOP-B and NOAA-19 Satellite Orbit:

Table of predicted SNOs for the next 14.0 days since TLE Epoch: 3/23/2018
Index Date (METOP-B) Time (METOP-B) Lat,Lon (METOP-B) SZA (METOP-B ) Date (NOAA-19) Time (NOAA-19) Lat,Lon (NOAA-19) SZA (NOAA-19 ) Distance(km) Time Diff (sec)
1 04/02/2018 11:49:42 78.16, 11.44 73.20 04/02/2018 11:48:32 78.16, 11.40 73.19 0.91 70
2 04/02/2018 12:40:24 -78.13, 178.61 106.85 04/02/2018 12:39:27 -78.17, 178.64 106.82 4.07 57
3 04/02/2018 13:31:04 78.14, -13.99 73.15 04/02/2018 13:30:33 78.15, -14.05 73.16 1.53 31
4 04/02/2018 14:21:45 -78.15, 153.39 106.85 04/02/2018 14:21:27 -78.12, 153.41 106.89 3.67 18
5 04/02/2018 15:12:26 78.13, -39.43 73.11 04/02/2018 15:12:34 78.14, -39.50 73.12 2.45 8
6 04/02/2018 16:03:07 -78.14, 127.95 106.90 04/02/2018 16:03:28 -78.11, 127.96 106.92 2.68 21
7 04/02/2018 16:53:48 78.11, -64.86 73.06 04/02/2018 16:54:34 78.10, -64.72 73.06 3.44 46
8 04/02/2018 17:44:29 -78.12, 102.52 106.95 04/02/2018 17:45:29 -78.10, 102.51 106.96 1.73 60




NCC Satellite Simultaneous Nadir Overpasses (SNOs) Prediction Service
